Powrót do katalogu

COSMOS 2251 DEB

AktywnyLEO
NORAD 33913·DEBRIS·🇷🇺 Russia

Wystrzelony Jun 16, 1993 z Plesetsk Cosmodrome

Loading…

Następne Przeloty (najbliższe 24 godziny)

TLE

ŚwieżeSource: Space-Track

Epoka: Sep 13, 2026, 18:47 UTC

1 33913U 93036DS  26256.78297168  .00001128  00000-0  29801-3 0  9994
2 33913  74.0349  27.8752 0046545  61.9559  51.1514 14.49412906924415

Śledź COSMOS 2251 DEB w czasie rzeczywistym z AllMySat

Download on the App Store